This is the latest recevied weather packets stored in our database for station/object W0AVQ. If no packets are shown the sender has not sent any weather packets the latest 10 day(s).
| Time | Temp. | Humidity | Pressure | Rain* | Wind** | Luminosity | Snow |
|---|---|---|---|---|---|---|---|
| 1777845373 | 21.67° C | 42% | 1015.3 hPa | 0 mm | - | 52 W/m² | - |
| 1777845069 | 22.22° C | 43% | 1015.6 hPa | 0 mm | - | 57 W/m² | - |
| 1777844768 | 22.22° C | 43% | 1015.6 hPa | 0 mm | - | 57 W/m² | - |
| 1777844464 | 22.78° C | 41% | 1015.6 hPa | 0 mm | - | 66 W/m² | - |
| 1777844163 | 22.22° C | 42% | 1015.9 hPa | 0 mm | - | 72 W/m² | - |
| 1777843858 | 21.67° C | 41% | 1015.7 hPa | 0 mm | - | 85 W/m² | - |
| 1777843556 | 21.67° C | 40% | 1015.7 hPa | 0 mm | - | 193 W/m² | - |
| 1777843253 | 21.67° C | 41% | 1016.1 hPa | 0 mm | - | 390 W/m² | - |
| 1777842951 | 21.67° C | 42% | 1016 hPa | 0 mm | - | 474 W/m² | - |
| 1777842646 | 21.67° C | 42% | 1016.4 hPa | 0 mm | - | 383 W/m² | - |
| 1777842343 | 21.67° C | 40% | 1016.2 hPa | 0 mm | - | 164 W/m² | - |
| 1777842038 | 21.67° C | 42% | 1016.5 hPa | 0 mm | - | 69 W/m² | - |
| 1777841735 | 21.67° C | 42% | 1016.6 hPa | 0 mm | - | 62 W/m² | - |
| 1777841432 | 21.67° C | 42% | 1016.6 hPa | 0 mm | - | 59 W/m² | - |
| 1777841129 | 21.67° C | 43% | 1016.5 hPa | 0 mm | - | 60 W/m² | - |
| 1777840826 | 21.67° C | 43% | 1016.8 hPa | 0 mm | - | 61 W/m² | - |
| 1777840523 | 21.11° C | 43% | 1016.8 hPa | 0 mm | - | 62 W/m² | - |
| 1777840220 | 21.11° C | 44% | 1017.3 hPa | 0 mm | - | 62 W/m² | - |
| 1777839918 | 21.11° C | 43% | 1017.2 hPa | 0 mm | - | 64 W/m² | - |
| 1777839616 | 21.11° C | 43% | 1017.4 hPa | 0 mm | - | 69 W/m² | - |
| 1777839314 | 21.67° C | 45% | 1017.5 hPa | 0 mm | - | 73 W/m² | - |
| 1777839011 | 21.11° C | 44% | 1017.6 hPa | 0 mm | - | 75 W/m² | - |
| 1777838707 | 21.11° C | 45% | 1017.6 hPa | 0 mm | - | 77 W/m² | - |
| 1777838403 | 20.56° C | 43% | 1017.9 hPa | 0 mm | - | 83 W/m² | - |
| 1777838101 | 21.11° C | 44% | 1017.8 hPa | 0 mm | - | 90 W/m² | - |
* Rain latest hour (hover to see other rain measurements)
** Current wind speed in m/s (hover to see current wind gust speed)